Silvana, WA

4:25 AM PDT on August 25, 2016 (GMT -0700)
Arlington Municipal

Weather History for KAWO - May, 2014

Change the Weather History Date:

Saturday, May 31, 2014

  Actual Average Record
Temperature  
Mean Temperature 56 °F -  
Max Temperature 71 °F 67 °F 78 °F (2001)
Min Temperature 42 °F 46 °F 37 °F (2008)
Degree Days  
Heating Degree Days 8    
Growing Degree Days 6 (Base 50)    
Moisture  
Dew Point 46 °F    
Average Humidity 72    
Maximum Humidity 93    
Minimum Humidity 49    
Precipitation  
Precipitation 0.00 in - - ()
Sea Level Pressure  
Sea Level Pressure 30.06 in    
Wind  
Wind Speed 3 mph (NW)    
Max Wind Speed 12 mph    
Max Gust Speed -    
Visibility 10 miles    
Events      
Averages and records for this station are not official NWS values.
T = Trace of Precipitation, MM = Missing Value Source: NWS Daily Summary

Daily Weather History Graph

Daily Weather History Graph

Search for Another Location

Airport or City:

Trip Planner

Search our weather history database for the weather conditions in past years. The results will help you decide how hot, cold, wet, or windy it might be!

Date:

Astronomy

May. 31, 2014 Rise Set
Actual Time 5:13 AM PDT 8:59 PM PDT
Civil Twilight 4:33 AM PDT 9:40 PM PDT
Nautical Twilight 3:39 AM PDT 10:34 PM PDT
Astronomical Twilight 2:19 AM PDT 11:55 PM PDT
Moon 8:01 AM PDT (5/31) 11:13 PM PDT (5/31)
Length of Visible Light 17h 06m
Length of Day
15h 46m
Waxing Crescent, 9% of the Moon is Illuminated
May 31
Waxing Crescent
Jun 5
First Quarter
Jun 12
Full
Jun 19
Last Quarter
Jun 27
New

Hourly Weather History & Observations

Time (PDT) Temp. Windchill Dew Point Humidity Pressure Visibility Wind Dir Wind Speed Gust Speed Precip Events Conditions
12:15 AM - - - N/A% 30.06 in 10.0 mi Calm Calm - N/A   Clear
12:35 AM 48.2 °F - 42.8 °F 82% 30.06 in 10.0 mi Calm Calm - N/A   Clear
12:55 AM 46.4 °F 45.2 °F 42.8 °F 87% 30.05 in 10.0 mi North 3.5 mph - N/A   Clear
1:15 AM 46.4 °F 44.3 °F 42.8 °F 87% 30.05 in 10.0 mi North 4.6 mph - N/A   Clear
1:35 AM - - - N/A% 30.05 in 10.0 mi Calm Calm - N/A   Clear
1:55 AM - - - N/A% 30.05 in 10.0 mi Calm Calm - N/A   Clear
2:15 AM - - - N/A% 30.05 in 10.0 mi Calm Calm - N/A   Clear
2:35 AM - - - N/A% 30.05 in 10.0 mi Calm Calm - N/A   Clear
2:55 AM - - - N/A% 30.05 in 10.0 mi Calm Calm - N/A   Clear
3:15 AM - - - N/A% 30.05 in 10.0 mi Calm Calm - N/A   Clear
3:35 AM - - - N/A% 30.06 in 6.0 mi Calm Calm - N/A   Clear
3:55 AM - - - N/A% 30.06 in 10.0 mi Calm Calm - N/A   Clear
4:15 AM - - - N/A% 30.07 in 10.0 mi Calm Calm - N/A   Clear
4:35 AM - - - N/A% 30.07 in 10.0 mi Calm Calm - N/A   Clear
4:55 AM 42.8 °F - 37.4 °F 81% 30.08 in 10.0 mi Calm Calm - N/A   Clear
5:15 AM 44.6 °F 43.1 °F 41.0 °F 87% 30.08 in 9.0 mi NNE 3.5 mph - N/A   Clear
5:35 AM - - - N/A% 30.07 in 8.0 mi North 3.5 mph - N/A   Clear
5:55 AM 42.8 °F 41.1 °F 41.0 °F 93% 30.08 in 10.0 mi North 3.5 mph - N/A   Clear
6:15 AM 44.6 °F - 42.8 °F 93% 30.09 in 9.0 mi Calm Calm - N/A   Clear
6:35 AM 46.4 °F - 42.8 °F 87% 30.09 in 10.0 mi Calm Calm - N/A   Clear
6:55 AM 48.2 °F - 44.6 °F 87% 30.09 in 10.0 mi Calm Calm - N/A   Clear
7:15 AM 48.2 °F - 44.6 °F 87% 30.09 in 10.0 mi Calm Calm - N/A   Clear
7:35 AM 50.0 °F - 46.4 °F 87% 30.09 in 10.0 mi Calm Calm - N/A   Clear
8:15 AM 55.4 °F - 46.4 °F 72% 30.10 in 10.0 mi Calm Calm - N/A   Clear
8:35 AM - - - N/A% 30.09 in 10.0 mi Calm Calm - N/A   Clear
8:55 AM - - - N/A% 30.09 in 10.0 mi SSW 3.5 mph - N/A   Clear
9:15 AM 59.0 °F - 46.4 °F 63% 30.09 in 10.0 mi Calm Calm - N/A   Clear
9:35 AM 60.8 °F - 46.4 °F 59% 30.09 in 10.0 mi SSW 3.5 mph - N/A   Clear
9:55 AM 60.8 °F - 46.4 °F 59% 30.09 in 10.0 mi Calm Calm - N/A   Clear
10:15 AM - - - N/A% 30.08 in 10.0 mi Calm Calm - N/A   Clear
10:35 AM - - - N/A% 30.08 in 10.0 mi SSE 4.6 mph - N/A   Clear
10:55 AM - - - N/A% 30.08 in 10.0 mi South 4.6 mph - N/A   Clear
11:15 AM - - - N/A% 30.08 in 10.0 mi SSW 4.6 mph - N/A   Clear
11:55 AM - - - N/A% 30.07 in 10.0 mi South 6.9 mph - N/A   Clear
12:15 PM 66.2 °F - 48.2 °F 52% 30.08 in 10.0 mi Calm Calm - N/A   Partly Cloudy
12:35 PM - - - N/A% 30.07 in 10.0 mi Calm Calm - N/A   Clear
12:55 PM - - - N/A% 30.06 in 10.0 mi NW 6.9 mph - N/A   Clear
1:15 PM 68.0 °F - 51.8 °F 56% 30.07 in 10.0 mi NW 10.4 mph - N/A   Clear
1:35 PM - - - N/A% 30.06 in 10.0 mi NNW 10.4 mph - N/A   Clear
1:55 PM - - - N/A% 30.06 in 10.0 mi NNW 10.4 mph - N/A   Clear
2:15 PM - - - N/A% 30.06 in 10.0 mi NW 9.2 mph - N/A   Clear
2:35 PM - - - N/A% 30.05 in 10.0 mi NW 10.4 mph - N/A   Clear
2:55 PM - - - N/A% 30.05 in 10.0 mi West 6.9 mph - N/A   Clear
3:15 PM - - - N/A% 30.05 in 10.0 mi WNW 8.1 mph - N/A   Clear
3:35 PM - - - N/A% 30.04 in 10.0 mi NW 9.2 mph - N/A   Clear
3:55 PM - - - N/A% 30.04 in 10.0 mi NNW 11.5 mph - N/A   Clear
4:15 PM - - - N/A% 30.04 in 10.0 mi NW 9.2 mph - N/A   Clear
4:35 PM - - - N/A% 30.04 in 10.0 mi NW 9.2 mph - N/A   Clear
4:55 PM 71.6 °F - 51.8 °F 50% 30.04 in 10.0 mi NW 10.4 mph - N/A   Clear
5:15 PM - - - N/A% 30.03 in 10.0 mi NNW 8.1 mph - N/A   Clear
5:35 PM 71.6 °F - 51.8 °F 50% 30.04 in 10.0 mi WNW 9.2 mph - N/A   Clear
5:55 PM 71.6 °F - 51.8 °F 50% 30.04 in 10.0 mi WNW 9.2 mph - N/A   Clear
6:15 PM 69.8 °F - 50.0 °F 49% 30.04 in 10.0 mi WNW 10.4 mph - N/A   Clear
6:35 PM 69.8 °F - 50.0 °F 49% 30.04 in 10.0 mi NW 11.5 mph - N/A   Clear
6:55 PM - - - N/A% 30.03 in 10.0 mi NW 11.5 mph - N/A   Clear
7:15 PM - - - N/A% 30.04 in 10.0 mi NW 11.5 mph - N/A   Clear
7:35 PM - - - N/A% 30.04 in 10.0 mi NW 10.4 mph - N/A   Clear
7:55 PM - - - N/A% 30.04 in 10.0 mi NW 9.2 mph - N/A   Clear
8:15 PM - - - N/A% 30.05 in 10.0 mi NNW 5.8 mph - N/A   Clear
8:35 PM 60.8 °F - 48.2 °F 63% 30.05 in 10.0 mi NW 4.6 mph - N/A   Clear
9:15 PM 57.2 °F - 48.2 °F 72% 30.06 in 10.0 mi North 5.8 mph - N/A   Clear
9:35 PM 57.2 °F - 48.2 °F 72% 30.07 in 10.0 mi NNE 4.6 mph - N/A   Clear
9:55 PM 55.4 °F - 46.4 °F 72% 30.08 in 10.0 mi North 5.8 mph - N/A   Clear
10:15 PM 53.6 °F - 46.4 °F 77% 30.08 in 10.0 mi North 5.8 mph - N/A   Clear
10:35 PM 55.4 °F - 46.4 °F 72% 30.08 in 10.0 mi North 3.5 mph - N/A   Clear
10:55 PM 53.6 °F - 46.4 °F 77% 30.08 in 10.0 mi North 3.5 mph - N/A   Clear
11:15 PM 53.6 °F - 46.4 °F 77% 30.08 in 10.0 mi WNW 5.8 mph - N/A   Clear
11:35 PM 51.8 °F - 44.6 °F 76% 30.08 in 10.0 mi WNW 6.9 mph - N/A   Clear
11:55 PM 51.8 °F - 44.6 °F 76% 30.09 in 10.0 mi Calm Calm - N/A   Clear